Flag for Kazakhstan Weather past 2 weeks in Almaty, Kazakhstan

Now
68 °F

Passing clouds.


Feels Like: 68 °F
Forecast: 67 / 93 °F
Wind: 3 mph from South

Location: Almaty Airport

Current Time: Jul 1, 2015 at 3:27:23 AM

Latest Report: Jul 1, 2015 at 3:00 AM


Visibility: N/A

Pressure: 29.80 "Hg

Humidity: 49%

Dew point: 48 °F

Location of AlmatyLocation

Historic Weather in Almaty — Graph

°F

Almaty temperature yesterday

Maximum temperature yesterday: 93 °F (at 2:30 PM)
Minimum temperature yesterday: 63 °F (at 4:30 AM)
Average temperature yesterday: 79 °F

Past Weeks' High & Low Weather Summary

 TemperatureHumidityPressure
High93 °F (Jun 30, 2:30 PM)94% (Jun 26, 5:30 AM)30.07 "Hg (Jun 26, 5:30 AM)
Low50 °F (Jun 16, 5:30 AM)12% (Jun 18, 3:30 PM)29.56 "Hg (Jun 23, 3:00 PM)
Average73 °F47%29.76 "Hg
* Reported Jun 16 2:00 AM — Jul 1 2:00 AM, Almaty, Weather by CustomWeather, © 2015

Note: Actual official high and low records may vary slightly from our data, if they occured in-between our weather recording intervals... More about our weather records

Advertising

Almaty weather history for previous 24 hours

 ConditionsComfort  
Time TempWeatherWind HumidityBarometerVisibility
2:00 AM
Wed, Jul 1
66 °FPassing clouds.1 mph52%29.80 "HgN/A
1:30 AM66 °FPassing clouds.3 mph56%29.80 "HgN/A
1:00 AM68 °FPassing clouds.3 mph53%29.80 "HgN/A
12:30 AM72 °FPassing clouds.3 mph47%29.80 "HgN/A
12:00 AM73 °FPassing clouds.3 mph41%29.80 "HgN/A
11:00 PM
Tue, Jun 30
70 °FPassing clouds.3 mph50%29.80 "HgN/A
10:30 PM72 °FPassing clouds.3 mph50%29.80 "HgN/A
10:00 PM73 °FPassing clouds.3 mph47%29.80 "HgN/A
9:00 PM79 °FPassing clouds.6 mph39%29.80 "HgN/A
8:30 PM79 °FPartly sunny.6 mph45%29.80 "HgN/A
7:30 PM88 °FScattered clouds.6 mph27%29.80 "HgN/A
7:00 PM90 °FScattered clouds.8 mph24%29.80 "HgN/A
6:30 PM91 °FScattered clouds.8 mph21%29.80 "HgN/A
6:00 PM90 °FScattered clouds.8 mph21%29.80 "HgN/A
5:30 PM91 °FScattered clouds.6 mph18%29.80 "HgN/A
5:00 PM93 °FScattered clouds.8 mph13%29.80 "HgN/A
4:30 PM93 °FScattered clouds.6 mph19%29.80 "HgN/A
4:00 PM93 °FScattered clouds.6 mph13%29.80 "HgN/A
3:30 PM93 °FScattered clouds.6 mph13%29.80 "HgN/A
3:00 PM93 °FScattered clouds.6 mph12%29.80 "HgN/A
2:30 PM93 °FScattered clouds.6 mph12%29.83 "HgN/A
2:00 PM91 °FScattered clouds.8 mph15%29.83 "HgN/A
1:30 PM91 °FScattered clouds.10 mph20%29.83 "HgN/A
1:00 PM91 °FScattered clouds.10 mph21%29.83 "HgN/A
12:30 PM90 °FScattered clouds.8 mph20%29.86 "HgN/A
12:00 PM88 °FScattered clouds.8 mph24%29.86 "HgN/A
11:30 AM88 °FPleasantly warm.10 mph25%29.86 "HgN/A
11:00 AM88 °FPassing clouds.8 mph29%29.86 "HgN/A
10:30 AM84 °FScattered clouds.6 mph29%29.86 "HgN/A
10:00 AM84 °FScattered clouds.6 mph33%29.86 "HgN/A
9:30 AM82 °FScattered clouds.3 mph32%29.86 "HgN/A
9:00 AM81 °FScattered clouds.3 mph32%29.86 "HgN/A
8:30 AM81 °FScattered clouds.1 mph37%29.86 "HgN/A
8:00 AM75 °FScattered clouds.1 mph50%29.89 "HgN/A
7:30 AM72 °FScattered clouds.3 mph61%29.89 "HgN/A
7:00 AM70 °FPartly sunny.1 mph60%29.86 "HgN/A
6:30 AM68 °FPartly sunny.1 mph60%29.86 "HgN/A
6:00 AM64 °FPartly sunny.1 mph64%29.86 "HgN/A
5:30 AM64 °FScattered clouds.1 mph60%29.86 "HgN/A
5:00 AM63 °FPassing clouds.No wind64%29.86 "HgN/A
4:30 AM63 °FPassing clouds.3 mph64%29.86 "HgN/A
3:30 AM64 °FPassing clouds.1 mph60%29.86 "HgN/A
3:00 AM64 °FPassing clouds.3 mph60%29.86 "HgN/A
Weather by CustomWeather, © 2015

See weather overviewHow to use our weather pages